Airfield :
LOGIN :

Register | Disclaimer

   EN    FR    IT 

 










Legend :    VFR   Marginal VFR   IFR   Intensive IFR   Very Intensive IFR
Visi :
Ceiling :
>= 8 km
>= 3000ft
5 to 8 km
1000 to 3000 ft
1500m to 5 km
500 to 1000 ft
800 to 1500m
200 to 500 ft
< 800m
< 200 ft
Symbols :   Thunderstorms  Fog  Heavy snow  Heavy precipitations  Wind > 20 kt
SIGMETs :     Misc.  Thunderstorms  Icing  Turbulence  Mountain Waves  Volcanic Ashes







- Airport Elevation : 2100 ft


LOXA - Fiala-Fernbrugg Air Base

METAR N/A
TAF TAF LOXA
Valid from the 17 at 15:00 until the 18 at 00:00 UTC


171415Z 1715/1724 VRB03KT 9999 FEW120 SCT300
PROB30
TEMPO 1715/1718 0700 FCBCFG SCT003
BECMG 1717/1719 7000 FEW005 SCT070 BKN100
TEMPO 1719/1724 24010KT 3000 SN FEW020 BKN040
No reported NOTAMs for that airfield.



MET'MAP, your aeronautical weather chart ! - Copyright ORBIFLY December 2007 - Disclaimer

ORBIFLY MET'MAP TEAM :

Programming & Development : Alexandra Zaïnal
Concept & Development : Baudouin d'Aumeries
Co-Development & Prog : Marc-Olivier Méhu
Technical & hardware support : Manuel Goepfert

Contact : metmap@orbifly.com




SOURCES & CREDITS :

   NOAA